When you browse on this site, cookies collect data to enhance your experience and personalize the content and advertising you see.
Visit our Privacy Policy to learn more. By continuing to use the site, you agree to this use of cookies and data.
  • In Hungary
  • List of Countries
  • For 7 days
  • Water Temperature
  • Satellite Maps
  • Weather Map
  • News
  • Weather Widgets
  • user-avatar
    Login

    Hourly Weather Nyirbator

    Today, 24 June, Monday

    Time Temperature Precipitation Wind Pressure Humidity
    00:00 +19°C° 0 mm 4 mps 749 mmHg 91%
    01:00 +19°C° 0 mm 4 mps 749 mmHg 90%
    02:00 +19°C° 0 mm 4 mps 749 mmHg 91%
    03:00 +18°C° 0 mm 4 mps 749 mmHg 92%
    04:00 +18°C° 0 mm 4 mps 749 mmHg 92%
    05:00 +19°C° 0 mm 4 mps 749 mmHg 89%
    06:00 +21°C° 0 mm 4 mps 749 mmHg 85%
    07:00 +22°C° 0 mm 4 mps 750 mmHg 82%
    08:00 +25°C° 0 mm 4 mps 750 mmHg 76%
    09:00 +26°C° 0 mm 3 mps 750 mmHg 71%
    10:00 +28°C° 0 mm 3 mps 750 mmHg 65%
    11:00 +29°C° 0 mm 3 mps 750 mmHg 63%
    12:00 +30°C° 0 mm 3 mps 750 mmHg 60%
    13:00 +30°C° 0 mm 4 mps 751 mmHg 58%
    14:00 +30°C° 0.1 mm 4 mps 751 mmHg 60%
    15:00 +30°C° 0.1 mm 4 mps 751 mmHg 63%
    16:00 +29°C° 0.1 mm 5 mps 751 mmHg 65%
    17:00 +28°C° 0.2 mm 5 mps 751 mmHg 70%
    18:00 +26°C° 0.2 mm 4 mps 751 mmHg 76%
    19:00 +25°C° 0.2 mm 4 mps 752 mmHg 82%
    20:00 +23°C° 0.1 mm 4 mps 752 mmHg 84%
    21:00 +22°C° 0.1 mm 4 mps 752 mmHg 85%
    22:00 +21°C° 0.1 mm 4 mps 752 mmHg 87%
    23:00 +21°C° 0 mm 4 mps 752 mmHg 88%

    Tomorrow, 25 June, Tuesday

    Time Temperature Precipitation Wind Pressure Humidity
    00:00 +20°C° 0 mm 3 mps 753 mmHg 89%
    01:00 +20°C° 0 mm 3 mps 753 mmHg 89%
    02:00 +19°C° 0 mm 3 mps 753 mmHg 90%
    03:00 +19°C° 0 mm 3 mps 753 mmHg 90%
    04:00 +19°C° 0 mm 3 mps 753 mmHg 91%
    05:00 +20°C° 0 mm 3 mps 753 mmHg 86%
    06:00 +22°C° 0 mm 3 mps 753 mmHg 82%
    07:00 +24°C° 0 mm 3 mps 754 mmHg 78%
    08:00 +26°C° 0 mm 3 mps 754 mmHg 73%
    09:00 +27°C° 0 mm 3 mps 754 mmHg 67%
    10:00 +29°C° 0 mm 3 mps 754 mmHg 61%
    11:00 +29°C° 0 mm 3 mps 754 mmHg 60%
    12:00 +30°C° 0 mm 3 mps 754 mmHg 57%
    13:00 +31°C° 0 mm 3 mps 754 mmHg 53%
    14:00 +31°C° 0 mm 3 mps 753 mmHg 54%
    15:00 +31°C° 0 mm 3 mps 753 mmHg 55%
    16:00 +31°C° 0 mm 2 mps 753 mmHg 56%
    17:00 +30°C° 0 mm 2 mps 753 mmHg 62%
    18:00 +28°C° 0 mm 2 mps 753 mmHg 68%
    19:00 +27°C° 0 mm 2 mps 754 mmHg 74%
    20:00 +26°C° 0 mm 2 mps 754 mmHg 76%
    21:00 +25°C° 0 mm 2 mps 754 mmHg 79%
    22:00 +24°C° 0 mm 2 mps 755 mmHg 81%
    23:00 +23°C° 0 mm 2 mps 755 mmHg 83%

    Day after tomorrow, 26 June, Wednesday

    Time Temperature Precipitation Wind Pressure Humidity
    00:00 +21°C° 0 mm 2 mps 755 mmHg 86%
    01:00 +21°C° 0 mm 2 mps 755 mmHg 88%
    02:00 +21°C° 0 mm 2 mps 754 mmHg 88%
    03:00 +20°C° 0 mm 2 mps 754 mmHg 88%
    04:00 +20°C° 0 mm 3 mps 754 mmHg 88%
    05:00 +21°C° 0 mm 3 mps 754 mmHg 83%
    06:00 +24°C° 0 mm 2 mps 754 mmHg 79%
    07:00 +25°C° 0 mm 2 mps 754 mmHg 74%
    08:00 +27°C° 0 mm 2 mps 754 mmHg 69%
    09:00 +28°C° 0 mm 2 mps 754 mmHg 63%
    10:00 +30°C° 0 mm 2 mps 754 mmHg 58%
    11:00 +31°C° 0 mm 1 mps 754 mmHg 54%
    12:00 +32°C° 0 mm 1 mps 754 mmHg 49%
    13:00 +33°C° 0 mm 1 mps 754 mmHg 45%
    14:00 +33°C° 0 mm 1 mps 753 mmHg 45%
    15:00 +33°C° 0 mm 1 mps 753 mmHg 45%
    16:00 +33°C° 0 mm 1 mps 752 mmHg 45%
    17:00 +31°C° 0 mm 1 mps 752 mmHg 51%
    18:00 +29°C° 0 mm 1 mps 752 mmHg 57%
    19:00 +27°C° 0 mm 1 mps 752 mmHg 63%
    20:00 +26°C° 0 mm 1 mps 752 mmHg 65%
    21:00 +23°C° 0 mm 0 mps 752 mmHg 66%
    22:00 +22°C° 0 mm 0 mps 752 mmHg 67%
    23:00 +22°C° 0 mm 0 mps 752 mmHg 68%

    27 June, Thursday

    Time Temperature Precipitation Wind Pressure Humidity
    00:00 +23°C° 0 mm 1 mps 752 mmHg 69%
    01:00 +23°C° 0 mm 1 mps 752 mmHg 70%
    02:00 +22°C° 0 mm 1 mps 751 mmHg 72%
    03:00 +22°C° 0 mm 1 mps 751 mmHg 75%
    04:00 +21°C° 0 mm 2 mps 751 mmHg 77%
    05:00 +23°C° 0 mm 2 mps 751 mmHg 75%
    06:00 +25°C° 0 mm 2 mps 750 mmHg 73%
    07:00 +26°C° 0 mm 3 mps 750 mmHg 70%
    08:00 +28°C° 0 mm 3 mps 750 mmHg 67%
    09:00 +29°C° 0 mm 4 mps 750 mmHg 64%
    10:00 +30°C° 0 mm 4 mps 750 mmHg 61%
    11:00 +32°C° 0 mm 4 mps 749 mmHg 57%
    12:00 +33°C° 0 mm 4 mps 749 mmHg 54%
    13:00 +34°C° 0 mm 5 mps 748 mmHg 51%
    14:00 +33°C° 0.1 mm 4 mps 748 mmHg 54%
    15:00 +33°C° 0.1 mm 4 mps 748 mmHg 58%
    16:00 +32°C° 0.1 mm 4 mps 747 mmHg 62%
    17:00 +29°C° 2.9 mm 4 mps 747 mmHg 70%
    18:00 +27°C° 2.9 mm 4 mps 747 mmHg 79%
    19:00 +25°C° 2.9 mm 3 mps 747 mmHg 87%
    20:00 +23°C° 0.7 mm 4 mps 747 mmHg 85%
    21:00 +22°C° 0.7 mm 5 mps 747 mmHg 83%
    22:00 +21°C° 0.7 mm 6 mps 747 mmHg 81%
    23:00 +21°C° 0 mm 6 mps 747 mmHg 82%

    28 June, Friday

    Time Temperature Precipitation Wind Pressure Humidity
    00:00 +20°C° 0 mm 6 mps 747 mmHg 82%
    01:00 +20°C° 0 mm 6 mps 746 mmHg 82%
    02:00 +19°C° 0 mm 6 mps 746 mmHg 84%
    03:00 +19°C° 0 mm 6 mps 746 mmHg 86%
    04:00 +17°C° 0 mm 5 mps 746 mmHg 88%
    05:00 +19°C° 0 mm 6 mps 746 mmHg 83%
    06:00 +20°C° 0 mm 6 mps 747 mmHg 78%
    07:00 +21°C° 0 mm 6 mps 747 mmHg 73%
    08:00 +22°C° 0 mm 6 mps 747 mmHg 68%
    09:00 +23°C° 0 mm 7 mps 747 mmHg 62%
    10:00 +24°C° 0 mm 7 mps 747 mmHg 56%
    11:00 +24°C° 0 mm 6 mps 747 mmHg 55%
    12:00 +26°C° 0 mm 6 mps 746 mmHg 54%
    13:00 +27°C° 0 mm 6 mps 746 mmHg 53%
    14:00 +27°C° 0 mm 5 mps 746 mmHg 54%
    15:00 +27°C° 0 mm 4 mps 746 mmHg 55%
    16:00 +27°C° 0 mm 4 mps 746 mmHg 56%
    17:00 +26°C° 0 mm 3 mps 747 mmHg 61%
    18:00 +24°C° 0 mm 3 mps 747 mmHg 66%
    19:00 +22°C° 0 mm 3 mps 747 mmHg 70%
    20:00 +21°C° 0 mm 3 mps 747 mmHg 69%
    21:00 +20°C° 0 mm 4 mps 748 mmHg 67%
    22:00 +19°C° 0 mm 4 mps 748 mmHg 66%
    23:00 +17°C° 0 mm 5 mps 749 mmHg 68%

    29 June, Saturday

    Time Temperature Precipitation Wind Pressure Humidity
    00:00 +17°C° 0 mm 5 mps 749 mmHg 71%
    01:00 +16°C° 0 mm 5 mps 749 mmHg 73%
    02:00 +16°C° 0 mm 5 mps 749 mmHg 77%
    03:00 +15°C° 0 mm 4 mps 749 mmHg 80%
    04:00 +14°C° 0 mm 4 mps 749 mmHg 83%
    05:00 +15°C° 0 mm 4 mps 749 mmHg 78%
    06:00 +18°C° 0 mm 4 mps 749 mmHg 72%
    07:00 +19°C° 0 mm 4 mps 749 mmHg 66%
    08:00 +20°C° 0 mm 4 mps 749 mmHg 61%
    09:00 +21°C° 0 mm 4 mps 749 mmHg 56%
    10:00 +22°C° 0 mm 4 mps 749 mmHg 50%
    11:00 +24°C° 0 mm 3 mps 749 mmHg 49%
    12:00 +24°C° 0 mm 3 mps 749 mmHg 48%
    13:00 +25°C° 0 mm 3 mps 748 mmHg 48%
    14:00 +25°C° 0 mm 3 mps 748 mmHg 49%
    15:00 +25°C° 0 mm 3 mps 748 mmHg 51%
    16:00 +25°C° 0 mm 3 mps 747 mmHg 53%
    17:00 +24°C° 0 mm 3 mps 748 mmHg 59%
    18:00 +23°C° 0 mm 2 mps 748 mmHg 66%
    19:00 +21°C° 0 mm 2 mps 748 mmHg 72%
    20:00 +20°C° 0 mm 2 mps 748 mmHg 73%
    21:00 +20°C° 0 mm 1 mps 749 mmHg 74%
    22:00 +19°C° 0 mm 1 mps 749 mmHg 75%
    23:00 +19°C° 0 mm 1 mps 749 mmHg 77%
    Show more